www.pogodaiklimat.ru

Погода и климат >> Архив погоды >> Доминиканская Республика >> Бараона


ПОГОДА в Бараоне

  • Прогноз погоды в Бараоне
  • Монитор погоды в Бараоне

АРХИВ ПОГОДЫ в Бараоне

Время (UTC), дата Ветер
(напр.,м/с)
 
Видим.   Явления Облачность Т
(С)
Тd
(С)
f
(%)
Тe
(С)
Тes
(С)
Комфортность P
(гПа)
Po
(гПа)
Тmin
(С)
Tmax
(С)
R
(мм)
R24
(мм)
S
(см)
21 10.06 ЮВ 9 14 км пыль {туман} 8/5 540 м
[Cb cap Ac und Cs]
+30.8 +25.0 71 +44 +44 опасность
перегрева
1015.2 1014.9
00 11.06 ЮВ 5 12 км пыль {дождь, туман} 9/6 540 м
[Cb cap Ac As Cs]
+27.6 +24.6 84 +39 +39 очень
душно
1015.7 1015.4 +25.0 +32.2 1
12 11.06 штиль 0 12 км пыль 9/8 480 м
[Cb cap Ac As Cs]
+24.2 +23.9 98 +33 +34 очень
душно
1016.8 1016.4 +23.0 +32.2 24
15 11.06 ЮВ 4 16 км {дождь} 5/5 600 м
[Cb cap]
+29.2 +24.4 75 +41 +47 опасность
перегрева
1018.4 1018.1 1
18 11.06 ЮВ 7 16 км 6/3 720 м
[Cu med, cong Cs]
+30.6 +24.5 70 +43 +47 опасность
перегрева
1016.4 1016.1 +23.0 +31.4
21 11.06 Ю 6 16 км 4/4 720 м
[Cu med, cong]
+29.4 +23.8 72 +40 +42 очень
душно
1014.6 1014.3
00 12.06 Ю 4 16 км 4/4 480 м
[Cb cap]
+27.2 +24.5 85 +38 +38 очень
душно
1016.2 1015.9 +23.0 +31.6
12 12.06 З 3 12 км пыль 3/3 540 м
[Sc]
+25.4 +21.9 81 +33 +35 очень
душно
1017.2 1016.9 +23.0 +31.6
15 12.06 ЮВ 6 12 км пыль {метель} 6/1 700 м
[Cu med, cong Cs]
+30.2 +22.0 62 +39 +45 очень
душно
1017.2 1016.9
18 12.06 ЮВ 8 12 км пыль {метель} 8/1 800 м
[Cu med, cong Cs]
+31.2 +22.8 61 +41 +44 опасность
перегрева
1016.4 1016.1 +23.0 +32.1
21 12.06 Ю 8 16 км {метель} 3/3 720 м
[Cu med, cong]
+29.8 +23.3 68 +40 +41 очень
душно
1014.9 1014.6
00 13.06 ЮВ 3 16 км 4/4 540 м
[Cu Sc]
+27.0 +23.5 81 +37 +37 очень
душно
1015.6 1015.3 +23.0 +32.2
12 13.06 штиль 0 16 км 5/5 540 м
[Cb cap]
+26.8 +22.7 78 +35 +38 очень
душно
1017.3 1017.0 +23.2 +32.2
15 13.06 ЮВ 6 16 км 8/3 600 м
[Cb cap Ac As]
+28.4 +22.4 70 +37 +40 очень
душно
1018.4 1018.1
18 13.06 ЮВ 8 16 км 5/3 720 м
[Cu med, cong Ac trans Ci fib]
+31.2 +22.8 61 +41 +43 опасность
перегрева
1017.2 1016.9 +23.2 +31.8
00 14.06 ЮВ 3 16 км 5/1 540 м
[Cu med, cong Ac trans Cs]
+27.4 +23.0 77 +37 +37 очень
душно
1016.0 1015.7 +23.2 +32.2
12 14.06 ЮЗ 3 8000 м осадки на расстоянии 8/5 480 м
[Cb cap Ac As Cs]
+27.2 +24.5 85 +38 +39 очень
душно
1017.7 1017.4 +24.6 +32.2 0.0
15 14.06 Ю 6 16 км 4/4 700 м
[Cu med, cong Ac trans Ci fib]
+30.5 +23.4 66 +41 +45 опасность
перегрева
1017.8 1017.5
18 14.06 Ю 6 16 км 3/1 720 м
[Cu med, cong Ci fib]
+31.2 +22.8 61 +41 +48 опасность
перегрева
1016.5 1016.2 +24.6 +31.6
21 14.06 В 7 16 км 4/4 600 м
[Cb cap Ac trans Ci fib]
+30.4 +22.3 62 +39 +40 очень
душно
1014.9 1014.6
00 15.06 ЮВ 4 16 км 6/5 540 м
[Cb cap Ac trans Cs]
+27.6 +22.1 72 +36 +36 очень
душно
1015.8 1015.5 +24.6 +32.6
12 15.06 штиль 0 16 км 8/3 540 м
[Cu med, cong Ac trans Cs]
+25.4 +22.6 85 +33 +36 очень
душно
1017.2 1016.9 +23.8 +32.6
15 15.06 ЮВ 6 14 км осадки на расстоянии 8/3 660 м
[Cu med, cong As op Cs]
+29.6 +22.8 67 +39 +43 очень
душно
1017.6 1017.3
18 15.06 ЮВ 9 16 км 6/4 630 м
[Cb cap Ac trans Cs]
+31.5 +23.3 62 +42 +43 опасность
перегрева
1016.0 1015.7 +23.8 +31.6
21 15.06 ЮВ 9 16 км 8/4 600 м
[Cb cap Ac trans Cs]
+30.0 +24.7 73 +43 +43 опасность
перегрева
1014.6 1014.3
00 16.06 ЮВ 6 16 км 8/4 540 м
[Sc Ac trans Cs]
+28.2 +24.5 80 +40 +40 очень
душно
1015.7 1015.4 +23.8 +31.6
12 16.06 ЮВ 4 16 км 6/5 600 м
[Cb cap Ac und Cs]
+29.0 +24.2 75 +40 +41 очень
душно
1016.6 1016.3 +26.6 +31.6 0.0
15 16.06 ЮВ 8 16 км 8/4 600 м
[Cb cap Ac und Cs]
+30.4 +23.2 65 +41 +42 опасность
перегрева
1017.0 1016.7
18 16.06 ЮВ 9 16 км 5/3 720 м
[Cu med, cong Ci fib]
+32.0 +23.8 62 +43 +45 опасность
перегрева
1015.8 1015.5 +26.6 +32.1
21 16.06 ЮВ 9 16 км 5/4 630 м
[Cb cap Ci fib]
+31.2 +23.5 64 +42 +43 опасность
перегрева
1014.0 1013.7
00 17.06 ЮВ 6 16 км 8/5 540 м
[Cb cap Ac trans Cs]
+28.0 +24.2 80 +39 +39 очень
душно
1015.7 1015.4 +26.6 +32.2
12 17.06 З 2 16 км 8/3 540 м
[Cu Sc Ac und Cs]
+28.0 +24.2 80 +39 +41 очень
душно
1017.7 1017.4 +25.5 +32.2
15 17.06 ЮВ 6 16 км 6/4 600 м
[Cb cap Ac und Ci fib]
+31.2 +25.0 70 +45 +48 опасность
перегрева
1018.2 1017.9

 

Местоположение метеостанции Бараона (Доминиканская Республика): широта 18.20 долгота -71.10 высота над уровнем моря 3 м.

В архиве по умолчанию представлена погода в Бараоне за последнюю неделю. Архивные данные за месяц целиком и за предыдущие месяцы, начиная с января 2011 года, Вы можете получить, выбрав интересующий диапазон дат из раскрывающегося списка и нажав кнопку "Ввод!".


*Определитесь, кто Вы:
робот инопланетянин человек

Внимание! Время в таблицах - всемирное. Для получения местного времени необходимо прибавить поправку, которая равна -4 ч.

Смотрите также архив погоды в соседних городах и на ближайших метеорологических станциях:

Погода в Санто-Доминго (Доминиканская Республика) (131 км)
Погода в Сантьяго (Доминиканская Республика) (145 км)
Погода в Лас Америкас (Доминиканская Республика) (154 км)
Погода в Пуэрто-Плате (Доминиканская Республика) (182 км)
Погода в Сабана де ла Мар (Доминиканская Республика) (204 км)
Погода в Ла Романа аэропорту (Доминиканская Республика) (232 км)
Погода в Пунта-Кане (Доминиканская Республика) (292 км)
Погода в Пунта-де-Маиси (Куба) (393 км)
Погода в Сантьяго-де-Кубе (Куба) (537 км)
Погода в Пунта Лукреция (Куба) (570 км)

Пояснения к столбцам:

Ветер - указаны скорость ветра в м/с - средняя за 10 мин, порывы в срок и между сроками (в фигурных скобках) и направление, откуда дует ветер: С - северный, СВ - северо-восточный, В - восточный, ЮВ - юго-восточный, Ю - южный, ЮЗ - юго-западный, З - западный, СЗ - северо-западный.
Видимость - горизонтальная дальность видимости в метрах или километрах. При видимости от 1 до 10 км при отсутствии осадков обычно наблюдается дымка, при ухудшении видимости до 1 км и менее - туман. В сухую погоду видимость может ухудшаться дымом, пылью или мглою.
Явления - указаны атмосферные явления, наблюдавшиеся в срок или в последний час перед сроком; фигурными скобками обозначены явления, наблюдавшиеся между сроками (за 1-3 часа до срока); квадратными скобками обозначены град или гололедные отложения с указанием их диаметра в мм.
Облачность - указаны через наклонную черту общая и нижняя облачность в баллах и высота нижней границы облаков в метрах; квадратными скобками обозначены формы облаков: Ci - перистые, Cs - перисто-слоистые, Cc - перисто-кучевые, Ac - высококучевые, As - высокослоистые, Sc - слоисто-кучевые, Ns - слоисто-дождевые, Cu - кучевые, Cb - кучево-дождевые. Подробнее классификацию облаков см. в Атласе облаков (PDF).
T - Температура воздуха - температура, измеренная на высоте 2 м над землей.
Td - Температура точки росы - температура, при понижении до которой содержащийся в воздухе водяной пар достигнет насыщения.
f - Относительная влажность воздуха - влажноcть воздуха, измеренная на высоте 2 м над землей.
Te - Эффективная температура - температура, которую ощущает одетый по сезону человек в тени. Характеристика душности погоды. При расчете учитывается влияние влажности воздуха и скорости ветра на теплоощущения человека.
Tes - Эффективная температура на солнце - температура, которую ощущает человек, с поправкой на солнечный нагрев. Характеристика знойности погоды. Зависит от высоты солнца над горизонтом, облачности и скорости ветра. Ночью, в пасмурную погоду, а также при ветре 12 м/с и более поправка равна нулю.
P - Атмосферное давление - приведенное к уровню моря атмосферное давление.
Po - Атмосферное давление - измеренное на уровне метеостанции атмосферное давление.
Tmin - Минимальная температура - минимум температуры воздуха на высоте 2 м над землей.
Tmax - Максимальная температура - максимум температуры воздуха на высоте 2 м над землей.
R - Количество осадков - Количество выпавших осадков за период времени, мм. При наведении курсора мыши на число - период времени, за который выпало указанное количество осадков.
R24 - Количество осадков - Количество выпавших осадков за 24 часа, мм.
S - Снежный покров - Высота снежного покрова, см. При наведении курсора мыши на число - состояние снежного покрова и степень покрытия местности в баллах.